FENGYUN 1C DEB

Satellite information

Favourite Embed

Satellite Type and Status

DEBRISIN ORBIT

Key statistics

Satellite FENGYUN 1C DEB at a glance.

Uptime

9494

Days in orbit

Revolutions

≈ 13.7

Per day

Orbit

SSO

Sun Synchronous Orbit

Inclination

102.7

Latest

Satellite identification and parameters

Extended collection of information and parameters for FENGYUN 1C DEB.

Object identification

Identified? True

Debris? True

Object name: FENGYUN 1C DEB

International designator: 1999-025DZX

Object number (NORAD): 36701

Object ID (CCSDS): 36701

Country: PEOPLES REPUBLIC OF CHINA (PRC)

Current information (Y/N): Y

RCS size: SMALL

Orbital parameters

Period: 105.121 minutes

Inclination: 102.7466 deg

SMA: 7378.23 km

Apoapsis: 1195.747 km

Periapsis: 804.443 km

RAAN: 5.1304 deg

Eccentricy: 0.0265175

Argument of periapsis: 40.7972 deg

Mean anomaly: 321.269 deg

Mean motion: 13.69854626 rev/day

Mean motion (dot): 0.00004472 rev/day2

B* drag term: 0.0040433 1/REarth

Two-line elements (TLE)

Creation date: May 3, 2025, 2:26 a.m.

Reference frame: TEME

Reference center: EARTH

Epoch: May 2, 2025, 8:57 p.m. UTC

TLE line 0: 0 FENGYUN 1C DEB

TLE line 1: 1 36701U 99025DZX 25122.87309790 .00004472 00000-0 40433-2 0 9990

TLE line 2: 2 36701 102.7466 5.1304 0265175 40.7972 321.2690 13.69854626580728

Live tracking on map

Real-time ground track for satellite FENGYUN 1C DEB.

In-orbit conjunctions

A list of the most updated potential collisions computed for object FENGYUN 1C DEB.

Target Orbit TCA Probability of collision Miss distance Type
CZ-6A DEB LEO 2024-11-10 16:49:02 0.0006042963 102.0 (m) DEBRIS

Associated space launch

Chinese polar orbiting meteorological satellite

FENGYUN 1C DEB was lifted into orbit during the mission ‘Long March 4B | Feng Yun 1C’, on board a Long March 4B space rocket.

The launch took place on May 10, 1999, 1:33 a.m. from Launch Complex 7.

For more information about the launch, click the button.

Launch to space Long March 4B | Feng Yun 1C
Long March 4B | Feng Yun 1C

Agency: N/A

Status: Launch Successful

Launch date: May 10, 1999, 1:33 a.m. UTC

Rocket: Long March 4B

Launch pad: Launch Complex 7

Location: Taiyuan Satellite Launch Center, People's Republic of China

...

Latest news about this satellite

There are no fresh news available about this satellite. Check back as we update our databases every day.


Newsletter sign-up

Weekly statistics, charts and insights to help you stay on top of the space industry.